Location: Erfurt
(50.9688°N, 11.0193°E)
Time: 22:57:29
(UTC+02:00)

ISS - Visible Passes

Search period start: 25 September 2020 00:00
Search period end: 05 October 2020 00:00
Orbit: 419 x 420 km, 51.6° (Epoch: 26 September)

Date Brightness Start Highest point End Pass type
(mag) Time Alt. Az. Time Alt. Az. Time Alt. Az.
25 Sep -3.8 20:58:16 10° W 21:01:39 77° N 21:02:08 61° ENE visible
26 Sep -3.7 20:10:51 10° W 20:14:15 79° N 20:16:31 19° E visible
26 Sep -1.7 21:47:44 10° WNW 21:49:28 28° W 21:49:28 28° W visible
27 Sep -3.9 21:00:20 10° W 21:03:43 89° N 21:03:50 83° E visible
28 Sep -3.8 20:12:55 10° W 20:16:18 80° N 20:18:11 24° E visible
28 Sep -1.3 21:49:46 10° W 21:51:09 21° W 21:51:09 21° W visible
29 Sep -3.5 21:02:20 10° W 21:05:30 60° SW 21:05:30 60° SW visible
30 Sep -3.8 20:14:53 10° WNW 20:18:16 77° SSW 20:19:53 28° ESE visible
30 Sep -0.9 21:51:59 10° W 21:52:51 15° W 21:52:51 15° W visible
01 Oct -3.7 19:27:26 10° W 19:30:50 89° NE 19:34:13 10° ESE visible
01 Oct -2.5 21:04:22 10° W 21:07:15 33° SW 21:07:15 33° SW visible
02 Oct -3.0 20:16:51 10° W 20:20:06 45° SSW 20:21:42 25° SE visible
03 Oct -3.4 19:29:21 10° W 19:32:42 61° SSW 19:36:02 10° ESE visible
03 Oct -1.4 21:06:47 10° W 21:09:02 17° SW 21:09:10 17° SW visible
04 Oct -1.8 20:18:58 10° W 20:21:44 24° SW 20:23:45 14° SSE visible
